Lid_Strength_Index
15 18 18 17 14 12 12 11 13 7 6 6 7 4 4 1 1 1 0 -0 -0 -1 -1 -1 -1 -1 -1 -1 -1 -1 -1 -1
14 16 14 14 11 12 12 10 10 8 9 8 8 5 2 1 0 1 0 0 -0 -1 -1 -1 -1 -1 -1 -1 -1 -1 -1 -1
17 15 14 12 11 12 12 12 11 9 11 11 10 2 1 1 1 1 1 0 -0 -1 -1 -1 -1 -1 -1 -1 -1 -1 -1 -1
19 16 13 12 12 11 12 12 12 10 11 12 11 6 2 1 1 0 1 0 -0 -1 -1 -1 -1 -1 -1 -1 -1 -1 -1 -1
17 16 14 12 11 12 12 11 12 11 12 10 11 8 2 1 1 1 0 0 0 -0 -0 -1 -1 -1 -1 -1 -1 -1 -1 -1
16 16 16 12 11 12 10 11 8 10 11 13 9 2 1 2 1 1 1 0 0 -0 -0 -0 -0 -1 -1 -1 -1 -1 -1 -1
16 15 13 12 12 10 9 9 9 9 9 7 4 2 3 3 2 2 1 1 0 0 0 -0 -0 -0 -1 -1 -1 -1 -1 -1
14 13 11 12 12 11 10 10 9 9 7 6 6 5 4 4 4 3 2 1 0 0 0 0 -0 -0 -0 -0 -0 -0 -0 -0
12 12 11 12 11 10 11 11 9 9 7 7 7 8 6 4 4 3 3 2 1 0 1 1 0 0 -0 -0 -0 -0 -0 -0
11 10 11 11 10 11 10 9 8 8 7 7 7 8 8 8 5 3 2 2 1 1 0 0 0 -0 -0 0 -0 0 -0 -0
10 10 11 10 11 10 10 8 8 8 7 7 7 7 7 7 7 5 3 2 2 1 1 0 0 1 0 0 0 -0 -0 -0
10 11 11 11 11 11 8 8 8 8 7 7 7 6 6 6 5 3 2 2 2 1 1 1 0 1 0 -0 -0 0 -0 -0
11 11 11 10 11 11 8 8 8 8 8 7 7 6 6 6 5 2 2 2 2 2 2 2 1 0 0 -0 0 0 0 -0
12 11 11 10 14 9 8 8 8 7 7 7 7 6 6 5 4 2 2 2 2 1 2 2 1 1 0 0 -0 0 0 0
14 12 12 11 13 9 8 8 9 8 8 7 7 6 6 5 5 2 2 2 2 2 3 2 2 1 1 1 1 1 0 0
15 12 13 12 12 10 9 9 9 9 8 8 8 7 5 5 4 4 5 2 2 2 2 2 2 2 1 2 2 2 1 1
14 11 13 12 13 11 9 9 9 9 9 8 8 6 6 5 4 5 4 6 3 2 2 3 3 3 2 2 2 2 1 1
13 11 12 12 12 11 10 9 9 9 9 8 8 7 7 6 5 4 4 4 2 3 3 2 2 2 2 2 1 1 1 1
14 12 12 13 14 12 10 9 8 8 8 9 9 8 7 6 5 4 4 5 4 5 5 3 2 2 3 2 3 2 2 2
12 14 17 13 18 14 12 10 9 9 9 9 8 8 7 7 6 5 4 3 3 2 2 2 3 3 3 3 3 2 2 1